Regional Weather Roundup
Issued by NWS

Home | Current Version | Previous Version | Text Only | Print | Product List | Glossary On
Versions: 1 2 3 4 5 6 7 8 9 10 11 12 13 14 15 16 17 18 19 20 21 22 23 24 25 26 27 28 29 30 31 32 33 34 35 36 37 38 39 40 41 42 43 44 45 46 47 48 49 50
000
ASUS46 KSTO 220015
RWRCA

NORTHERN AND CENTRAL CA REGIONAL WEATHER ROUNDUP
NATIONAL WEATHER SERVICE SACRAMENTO CA
500 PM PDT MON MAY 21 2018

NOTE: FAIR INDICATES FEW OR NO CLOUDS BELOW 12,000 FEET WITH NO
SIGNIFICANT WEATHER AND/OR OBSTRUCTIONS TO VISIBILITY.

CAZ001-003-220100-
NORTHWEST AREA

CITY           SKY/WX    TMP DP  RH WIND       PRES   REMARKS
CRESCENT CITY  SUNNY     57  50  77 NW14G22   29.92F
UKIAH          SUNNY     80  48  32 N10       29.77F
$$

CAZ006-505>513-220100-
BAY AREA

CITY           SKY/WX    TMP DP  RH WIND       PRES   REMARKS
SANTA ROSA     SUNNY     72  53  51 SE16      29.76F
SAN RAFAEL     N/A       70  MM  MM MISG
NAPA           SUNNY     68  53  58 S17       29.79F
CONCORD        SUNNY     73  51  46 S17       29.78F
OAKLAND CITY   N/A      MM  MM  MM MISG
OAKLAND        MOSUNNY   60  51  72 W20       29.86S
SAN FRAN CITY  N/A       57  MM  73 MISG
SAN FRAN ARPT  PTSUNNY   59  48  67 W23G29    29.86F
LIVERMORE      SUNNY     67  54  63 W16       29.82R
HAYWARD        MOSUNNY   61  50  67 W18       29.87S
REDWOOD CITY   N/A       64  MM  62 MISG
MOFFETT ARPT   SUNNY     68  52  56 N17       29.84S
SAN JOSE ARPT  MOSUNNY   67  52  58 NW20G28   29.84S
$$
CAZ034-037-514>518-220100-
CENTRAL COAST

CITY           SKY/WX    TMP DP  RH WIND       PRES   REMARKS
WATSONVILLE    SUNNY     62  52  69 E9        29.87F
SALINAS        CLOUDY    59  49  69 NW14      29.90S
MONTEREY       CLOUDY    57  50  77 W10       29.92S
SAN LUIS OBISP CLOUDY    61  49  64 NW12      29.89S
SANTA MARIA    CLOUDY    58  49  72 W13       29.91S
$$
CAZ015-016-220100-
NORTHERN SACRAMENTO VALLEY

CITY           SKY/WX    TMP DP  RH WIND       PRES   REMARKS
REDDING        SUNNY     92  39  15 NW8       29.67F
RED BLUFF      SUNNY     92  42  17 VRB6      29.68F
OROVILLE       SUNNY     82  55  39 S8        29.72F
$$
CAZ016>018-220100-
SOUTHERN SACRAMENTO VALLEY

CITY           SKY/WX    TMP DP  RH WIND       PRES   REMARKS
AUBURN         MOSUNNY   75  54  46 SW6       29.79S
BEALE AFB      PTSUNNY   81  52  36 SW6       29.70F
LINCOLN        FAIR      82  50  32 S7        29.71F
MARYSVILLE     SUNNY     82  53  36 S5        29.72F
SAC INTL ARPT  SUNNY     83  54  36 S13       29.71F
MATHER AIRPORT MOSUNNY   82  52  34 SW8G17    29.72F
DOWNTOWN SAC   N/A       81  MM  MM MISG
SAC EXEC ARPT  SUNNY     79  56  45 S12       29.73F
VACAVILLE      SUNNY     80  58  46 SW15G21   29.74F
TRAVIS AFB     SUNNY     75  53  46 W22G31    29.73F
$$
CAZ019>021-220100-
SAN JOAQUIN VALLEY

CITY           SKY/WX    TMP DP  RH WIND       PRES   REMARKS
STOCKTON       SUNNY     84  52  33 W17       29.75S
MODESTO        SUNNY     82  52  35 N9        29.74F
MERCED         SUNNY     79  52  38 W6        29.76F
LEMOORE        MOSUNNY   79  43  27 CALM      29.78F
FRESNO         MOSUNNY   78  46  32 VRB3      29.78F
HANFORD        SUNNY     80  45  28 NW10      29.78F
BAKERSFIELD    SUNNY     79  45  29 NW12      29.77F
$$
CAZ011-012-071-220100-
NORTHERN MOUNTAINS

CITY           SKY/WX    TMP DP  RH WIND       PRES   REMARKS
YREKA          MOSUNNY   80  42  25 NW10G18   29.85F
MOUNT SHASTA   SUNNY     72  47  40 VRB7      29.87F
ALTURAS        SUNNY     74  34  23 VRB6      29.89F
$$
CAZ011-012-071-220100-
SIERRA NEVADA MTNS

CITY           SKY/WX    TMP DP  RH WIND       PRES   REMARKS
BLUE CANYON    CLOUDY    60  51  72 W6        29.93S
TAHOE VLY ARPT CLOUDY    57  43  59 NE5       29.94S
MAMMOTH LAKES  CLOUDY    47  42  84 W6        29.99R
$$



USA.gov is the U.S. government's official web portal to all federal, state and local government web resources and services.